When you browse on this site, cookies collect data to enhance your experience and personalize the content and advertising you see.
Visit our Privacy Policy to learn more. By continuing to use the site, you agree to this use of cookies and data.
  • In Latvia
  • List of Countries
  • For 7 days
  • Water Temperature
  • Satellite Maps
  • Weather Map
  • Weather Widgets
  • user-avatar
    Login

    Hourly Weather Lubiaz

    Today, 21 June, Friday

    Time Temperature Precipitation Wind Pressure Humidity
    00:00 +19°C° 0.1 mm 2 mps 749 mmHg 89%
    01:00 +18°C° 0.1 mm 2 mps 749 mmHg 90%
    02:00 +18°C° 0 mm 2 mps 749 mmHg 91%
    03:00 +18°C° 0 mm 2 mps 749 mmHg 91%
    04:00 +18°C° 0 mm 2 mps 750 mmHg 92%
    05:00 +19°C° 0 mm 2 mps 750 mmHg 88%
    06:00 +20°C° 0 mm 2 mps 750 mmHg 84%
    07:00 +23°C° 0 mm 2 mps 750 mmHg 79%
    08:00 +24°C° 0.2 mm 2 mps 751 mmHg 74%
    09:00 +25°C° 0.2 mm 2 mps 751 mmHg 68%
    10:00 +26°C° 0.2 mm 2 mps 751 mmHg 62%
    11:00 +27°C° 0.2 mm 3 mps 751 mmHg 59%
    12:00 +27°C° 0.2 mm 3 mps 751 mmHg 56%
    13:00 +28°C° 0.2 mm 3 mps 751 mmHg 53%
    14:00 +28°C° 0.3 mm 3 mps 751 mmHg 56%
    15:00 +27°C° 0.3 mm 3 mps 751 mmHg 58%
    16:00 +27°C° 0.3 mm 4 mps 751 mmHg 61%
    17:00 +26°C° 0.2 mm 3 mps 751 mmHg 66%
    18:00 +25°C° 0.2 mm 3 mps 751 mmHg 71%
    19:00 +24°C° 0.2 mm 3 mps 751 mmHg 76%
    20:00 +22°C° 0 mm 3 mps 752 mmHg 79%
    21:00 +20°C° 0 mm 3 mps 752 mmHg 81%
    22:00 +19°C° 0 mm 2 mps 753 mmHg 84%
    23:00 +18°C° 0 mm 2 mps 753 mmHg 88%

    Tomorrow, 22 June, Saturday

    Time Temperature Precipitation Wind Pressure Humidity
    00:00 +17°C° 0 mm 3 mps 753 mmHg 91%
    01:00 +17°C° 0 mm 3 mps 753 mmHg 95%
    02:00 +16°C° 0 mm 2 mps 754 mmHg 95%
    03:00 +15°C° 0 mm 2 mps 754 mmHg 95%
    04:00 +15°C° 0 mm 2 mps 754 mmHg 95%
    05:00 +16°C° 0 mm 2 mps 754 mmHg 88%
    06:00 +17°C° 0 mm 3 mps 755 mmHg 80%
    07:00 +18°C° 0 mm 3 mps 755 mmHg 73%
    08:00 +19°C° 0 mm 3 mps 755 mmHg 69%
    09:00 +20°C° 0 mm 4 mps 755 mmHg 65%
    10:00 +22°C° 0 mm 4 mps 755 mmHg 61%
    11:00 +22°C° 0 mm 4 mps 755 mmHg 59%
    12:00 +23°C° 0 mm 4 mps 755 mmHg 57%
    13:00 +25°C° 0 mm 4 mps 755 mmHg 55%
    14:00 +25°C° 0 mm 4 mps 754 mmHg 56%
    15:00 +23°C° 0 mm 5 mps 754 mmHg 57%
    16:00 +23°C° 0 mm 5 mps 754 mmHg 58%
    17:00 +23°C° 0 mm 5 mps 754 mmHg 62%
    18:00 +22°C° 0 mm 4 mps 754 mmHg 66%
    19:00 +21°C° 0 mm 4 mps 754 mmHg 69%
    20:00 +20°C° 0 mm 4 mps 754 mmHg 70%
    21:00 +20°C° 0 mm 4 mps 754 mmHg 71%
    22:00 +19°C° 0 mm 4 mps 754 mmHg 72%
    23:00 +18°C° 0 mm 4 mps 754 mmHg 72%

    Day after tomorrow, 23 June, Sunday

    Time Temperature Precipitation Wind Pressure Humidity
    00:00 +18°C° 0 mm 4 mps 754 mmHg 71%
    01:00 +17°C° 0 mm 4 mps 754 mmHg 71%
    02:00 +17°C° 0 mm 4 mps 754 mmHg 72%
    03:00 +17°C° 0 mm 4 mps 754 mmHg 73%
    04:00 +15°C° 0 mm 4 mps 754 mmHg 74%
    05:00 +15°C° 0 mm 4 mps 755 mmHg 74%
    06:00 +15°C° 0 mm 4 mps 755 mmHg 73%
    07:00 +15°C° 0 mm 4 mps 755 mmHg 73%
    08:00 +17°C° 0 mm 4 mps 755 mmHg 70%
    09:00 +18°C° 0 mm 4 mps 755 mmHg 67%
    10:00 +18°C° 0 mm 4 mps 755 mmHg 63%
    11:00 +20°C° 0 mm 4 mps 755 mmHg 60%
    12:00 +22°C° 0 mm 4 mps 755 mmHg 57%
    13:00 +23°C° 0 mm 4 mps 755 mmHg 54%
    14:00 +23°C° 0 mm 4 mps 755 mmHg 56%
    15:00 +25°C° 0 mm 4 mps 755 mmHg 57%
    16:00 +25°C° 0 mm 4 mps 755 mmHg 59%
    17:00 +23°C° 0 mm 4 mps 755 mmHg 63%
    18:00 +22°C° 0 mm 4 mps 755 mmHg 68%
    19:00 +22°C° 0 mm 4 mps 755 mmHg 72%
    20:00 +20°C° 0 mm 4 mps 756 mmHg 76%
    21:00 +18°C° 0 mm 3 mps 756 mmHg 79%
    22:00 +17°C° 0 mm 3 mps 757 mmHg 83%
    23:00 +16°C° 0 mm 3 mps 757 mmHg 87%

    24 June, Monday

    Time Temperature Precipitation Wind Pressure Humidity
    00:00 +16°C° 0 mm 2 mps 757 mmHg 90%
    01:00 +15°C° 0 mm 2 mps 757 mmHg 94%
    02:00 +15°C° 0 mm 2 mps 757 mmHg 94%
    03:00 +14°C° 0 mm 2 mps 757 mmHg 95%
    04:00 +14°C° 0 mm 1 mps 757 mmHg 95%
    05:00 +15°C° 0 mm 2 mps 757 mmHg 89%
    06:00 +17°C° 0 mm 2 mps 758 mmHg 84%
    07:00 +18°C° 0 mm 2 mps 758 mmHg 78%
    08:00 +20°C° 0 mm 2 mps 758 mmHg 74%
    09:00 +22°C° 0 mm 3 mps 758 mmHg 70%
    10:00 +25°C° 0 mm 3 mps 758 mmHg 66%
    11:00 +25°C° 0 mm 3 mps 758 mmHg 65%
    12:00 +26°C° 0 mm 3 mps 758 mmHg 64%
    13:00 +27°C° 0 mm 3 mps 758 mmHg 62%
    14:00 +27°C° 0.1 mm 4 mps 758 mmHg 62%
    15:00 +27°C° 0.1 mm 4 mps 758 mmHg 62%
    16:00 +28°C° 0.1 mm 4 mps 757 mmHg 62%
    17:00 +27°C° 0.1 mm 4 mps 758 mmHg 67%
    18:00 +26°C° 0.1 mm 3 mps 758 mmHg 73%
    19:00 +25°C° 0.1 mm 3 mps 758 mmHg 78%
    20:00 +24°C° 0 mm 3 mps 758 mmHg 83%
    21:00 +22°C° 0 mm 3 mps 758 mmHg 87%
    22:00 +20°C° 0 mm 2 mps 759 mmHg 92%
    23:00 +20°C° 0 mm 2 mps 759 mmHg 92%

    25 June, Tuesday

    Time Temperature Precipitation Wind Pressure Humidity
    00:00 +19°C° 0 mm 2 mps 759 mmHg 92%
    01:00 +19°C° 0 mm 2 mps 759 mmHg 93%
    02:00 +18°C° 0 mm 2 mps 759 mmHg 93%
    03:00 +18°C° 0 mm 2 mps 759 mmHg 92%
    04:00 +17°C° 0 mm 2 mps 758 mmHg 92%
    05:00 +19°C° 0 mm 2 mps 759 mmHg 89%
    06:00 +20°C° 0 mm 2 mps 759 mmHg 85%
    07:00 +23°C° 0 mm 2 mps 759 mmHg 81%
    08:00 +24°C° 0 mm 2 mps 759 mmHg 76%
    09:00 +26°C° 0 mm 3 mps 759 mmHg 70%
    10:00 +28°C° 0 mm 3 mps 759 mmHg 65%
    11:00 +29°C° 0 mm 3 mps 759 mmHg 63%
    12:00 +29°C° 0 mm 3 mps 759 mmHg 61%
    13:00 +30°C° 0 mm 3 mps 759 mmHg 59%
    14:00 +30°C° 0.1 mm 4 mps 758 mmHg 58%
    15:00 +30°C° 0.1 mm 4 mps 758 mmHg 58%
    16:00 +32°C° 0.1 mm 4 mps 758 mmHg 58%
    17:00 +30°C° 0.4 mm 3 mps 758 mmHg 64%
    18:00 +29°C° 0.4 mm 3 mps 758 mmHg 70%
    19:00 +28°C° 0.4 mm 2 mps 758 mmHg 76%
    20:00 +26°C° 0.2 mm 2 mps 758 mmHg 80%
    21:00 +25°C° 0.2 mm 2 mps 759 mmHg 85%
    22:00 +23°C° 0.2 mm 2 mps 759 mmHg 90%
    23:00 +23°C° 0 mm 2 mps 759 mmHg 91%

    26 June, Wednesday

    Time Temperature Precipitation Wind Pressure Humidity
    00:00 +21°C° 0 mm 2 mps 759 mmHg 93%
    01:00 +21°C° 0 mm 2 mps 759 mmHg 94%
    02:00 +20°C° 0 mm 2 mps 758 mmHg 95%
    03:00 +21°C° 0 mm 1 mps 758 mmHg 96%
    04:00 +21°C° 0 mm 1 mps 758 mmHg 96%
    05:00 +22°C° 0 mm 1 mps 758 mmHg 92%
    06:00 +23°C° 0 mm 1 mps 758 mmHg 87%
    07:00 +25°C° 0 mm 1 mps 758 mmHg 82%
    08:00 +26°C° 0 mm 2 mps 758 mmHg 75%
    09:00 +27°C° 0 mm 2 mps 758 mmHg 68%
    10:00 +29°C° 0 mm 2 mps 758 mmHg 61%
    11:00 +29°C° 0.1 mm 2 mps 758 mmHg 59%
    12:00 +30°C° 0.1 mm 2 mps 757 mmHg 57%
    13:00 +30°C° 0.1 mm 2 mps 757 mmHg 54%
    14:00 +30°C° 0.1 mm 2 mps 757 mmHg 54%
    15:00 +30°C° 0.1 mm 2 mps 756 mmHg 54%
    16:00 +30°C° 0.1 mm 2 mps 756 mmHg 54%
    17:00 +29°C° 0.1 mm 2 mps 756 mmHg 61%
    18:00 +28°C° 0.1 mm 2 mps 756 mmHg 68%
    19:00 +26°C° 0.1 mm 3 mps 756 mmHg 75%
    20:00 +25°C° 0 mm 2 mps 756 mmHg 80%
    21:00 +23°C° 0 mm 2 mps 756 mmHg 85%
    22:00 +21°C° 0 mm 2 mps 756 mmHg 90%
    23:00 +20°C° 0 mm 2 mps 756 mmHg 91%
    Show more